Regional Weather Roundup
Issued by NWS

Home | Current Version | Previous Version | Text Only | Print | Product List | Glossary On
Versions: 1 2 3 4 5 6 7 8 9 10 11 12 13 14 15 16 17 18 19 20 21 22 23 24 25 26 27 28 29 30 31 32 33 34 35 36 37 38 39 40 41 42 43 44 45 46 47 48 49 50
000
ASUS43 KDTX 020710
RWRMI
MICHIGAN HOURLY REGIONAL WEATHER ROUNDUP
NATIONAL WEATHER SERVICE DETROIT/PONTIAC MI
300 AM EDT SAT AUG 02 2014

NOTE: "FAIR" INDICATES FEW OR NO CLOUDS BELOW 12,000 FEET WITH NO
SIGNIFICANT WEATHER AND/OR OBSTRUCTION TO VISIBILITY.

MIZ047>049-052>055-059>063-066>070-074>076-081>083-020800-
SOUTHEAST LOWER MICHIGAN

CITY           SKY/WX    TMP DP  RH WIND       PRES   REMARKS
ADRIAN         PTCLDY    63  60  90 N6        30.11S
ALMA           CLEAR     56  55  95 CALM      30.12S FOG
ANN ARBOR      MOCLDY    62  57  83 CALM      30.10S
BAD AXE        PTCLDY    60  60 100 CALM      30.11F FOG
DETROIT CITY   CLEAR     69  61  75 CALM      30.09S
DETROIT        MOCLDY    65  61  87 CALM      30.10S FOG
FLINT          CLEAR     58  55  90 SE5       30.11S
GROSSE ILE     PTCLDY    64  63  94 CALM      30.08S FOG
HILLSDALE      PTCLDY    58  58 100 CALM      30.11F
HOWELL         CLEAR     59  57  92 CALM      30.10F

CITY           SKY/WX    TMP DP  RH WIND       PRES   REMARKS
JACKSON        PTCLDY    61  57  87 CALM      30.11F
LAMBERTVILLE   PTCLDY    63  59  88 CALM      30.10S FOG
LANSING        CLEAR     55  53  93 CALM      30.12S FOG
LAPEER         NOT AVBL
MASON          MOCLDY    58  56  94 CALM      30.12S
MONROE         PTCLDY    61  59  94 N7        30.08S FOG
MT. CLEMENS    CLEAR     63  63 100 W1        30.09S FOG
PONTIAC        PTCLDY    64  60  87 CALM      30.11S
PORT HOPE        N/A     63  60  90 CALM      30.09F
PORT HURON     FOG       59  59 100 CALM      30.11R VSB 3/4
TRI CITIES     CLEAR     61  58  90 CALM      30.11F
YPSILANTI      CLEAR     66  60  81 CALM      30.11R
$$
MIZ043>046-050>051-056>058-064>065-071>073-077>080-020800-
SOUTHWEST LOWER MICHIGAN

CITY           SKY/WX    TMP DP  RH WIND       PRES   REMARKS
BATTLE CREEK   CLEAR     61  57  87 CALM      30.12S
BENTON HARBOR  PTCLDY    57  56  96 E3        30.09S FOG
BIG RAPIDS     CLEAR    N/A N/A N/A CALM      30.10S HAZE
COLDWATER      PTCLDY    61  60  96 SE3       30.11F FOG
HOLLAND        CLEAR     60  57  89 CALM      30.10F FOG
GRAND RAPIDS   CLEAR     59  56  89 SE5       30.11S
KALAMAZOO      CLEAR     60  58  92 CALM      30.11F FOG
MARSHALL       CLEAR     56  55  96 CALM      30.11F
MUSKEGON       CLEAR     60  57  89 CALM      30.10F FOG
$$
MIZ016>042-020800-
NORTHERN LOWER MICHIGAN

CITY           SKY/WX    TMP DP  RH WIND       PRES   REMARKS
ALPENA         MOCLDY    58  56  93 CALM      30.11S
BEAVER ISLAND  MOCLDY    59  57  92 CALM      30.10F
BELLAIRE       MOCLDY    57  55  93 CALM      30.08F
CADILLAC       FOG       54  54 100 CALM      30.10F VSB 3/4
CHARLEVOIX     PTCLDY    63  56  80 W3        30.12S
FRANKFORT      SUNNY     57  54  89 CALM      30.09S
GAYLORD        PTCLDY    61  57  87 E3        30.11F
GRAYLING       FOG       54  54 100 CALM      30.12S VSB 1
HARBOR SPRINGS MOCLDY    63  54  71 NE6       30.10F
HOUGHTON LAKE  PTCLDY    56  55  97 CALM      30.12R FOG
MANISTEE       CLEAR     57  54  88 CALM      30.10S
OSCODA         CLEAR     56  55  95 CALM      30.10F
PELLSTON       PTCLDY    53  52  96 CALM      30.11S
TRAVERSE CITY  CLEAR     59  56  89 CALM      30.08F
$$
MIZ007>008-015-020800-
EASTERN UPPER MICHIGAN

CITY           SKY/WX    TMP DP  RH WIND       PRES   REMARKS
KINROSS        PTCLDY    54  54 100 CALM      30.12S
MACKINAC ISLAN PTCLDY    56  55  95 NE6       30.10F
NEWBERRY       PTCLDY    51  49  93 N3        30.12F
S. S. MARIE    PTCLDY    52  47  83 CALM      30.12S
$$
MIZ004>006-011>014-085-020800-
CENTRAL UPPER MICHIGAN

CITY           SKY/WX    TMP DP  RH WIND       PRES   REMARKS
MANISTIQUE     CLOUDY    56  52  86 N3        30.11S
ESCANABA       CLEAR     55  52  88 NE3       30.10F
MENOMINEE      CLEAR     63  59  88 E5        30.08F
SAWYER-GWINN   PTCLDY    53  49  85 CALM      30.13S
$$
MIZ001>003-009>011-084-020800-
WESTERN UPPER MICHIGAN

CITY           SKY/WX    TMP DP  RH WIND       PRES   REMARKS
IRON MOUNTAIN  MOCLDY    58  53  84 CALM      30.11F
HOUGHTON       CLEAR     51  48  89 CALM      30.10F
COPPER HARBOR    N/A     59  47  64 SW9       30.09F
IRONWOOD       PTCLDY    50  50 100 CALM      30.10S
$$

ABBREVIATIONS USED IN REMARKS
   TC - TEMPERATURE IN CELSIUS
  WCI - WIND CHILL INDEX
   HX - HEAT INDEX
  VSB - VISIBILITY




USA.gov is the U.S. government's official web portal to all federal, state and local government web resources and services.